Flag for Germany Weather past 2 weeks in Verden (Aller), Lower Saxony, Germany

Now
54 °F

Broken clouds.


Feels Like: 54 °F
Forecast: 49 / 63 °F
Wind: 1 mph from Southwest

Location: Bremen Airport

Current Time: Sep 3, 2015 at 7:51:25 PM

Latest Report: Sep 3, 2015 at 7:20 PM


Visibility: N/A

Pressure: 29.89 "Hg

Humidity: 94%

Dew point: 52 °F

Location of Verden (Aller)Location

Historic Weather in Verden (Aller) — Graph

°F

Verden (Aller) temperature yesterday

Maximum temperature yesterday: 64 °F (at 12:50 PM)
Minimum temperature yesterday: 48 °F (at 11:20 PM)
Average temperature yesterday: 57 °F

Past Weeks' High & Low Weather Summary

 TemperatureHumidityPressure
High84 °F (Aug 31, 5:20 PM)100% (Aug 20, 12:50 AM)30.27 "Hg (Aug 20, 12:50 AM)
Low46 °F (Sep 3, 1:20 AM)30% (Aug 22, 1:50 PM)29.56 "Hg (Aug 24, 5:50 PM)
Average64 °F75%29.97 "Hg
* Reported Aug 19 6:20 PM — Sep 3 6:20 PM, Verden (Aller), Weather by CustomWeather, © 2015

Note: Actual official high and low records may vary slightly from our data, if they occured in-between our weather recording intervals... More about our weather records

Advertising

Verden (Aller) weather history for previous 24 hours

 ConditionsComfort  
Time TempWeatherWind HumidityBarometerVisibility
6:20 PM
Thu, Sep 3
55 °FThunderstorms. Broken clouds.16 mph77%29.92 "HgN/A
5:20 PM63 °FScattered clouds.8 mph56%29.89 "HgN/A
4:50 PM66 °FScattered clouds.12 mph52%29.89 "HgN/A
4:20 PM64 °FPassing clouds.9 mph52%29.89 "HgN/A
3:50 PM63 °FPassing clouds.9 mph52%29.89 "HgN/A
3:20 PM66 °FPassing clouds.8 mph52%29.89 "HgN/A
2:50 PM64 °FPartly sunny.8 mph52%29.89 "HgN/A
2:20 PM63 °FPartly sunny.12 mph56%29.92 "HgN/A
1:50 PM63 °FPartly sunny.9 mph56%29.92 "HgN/A
1:20 PM63 °FScattered clouds.12 mph56%29.92 "HgN/A
12:50 PM59 °FScattered clouds.8 mph63%29.92 "HgN/A
12:20 PM59 °FScattered clouds.9 mph63%29.92 "HgN/A
11:50 AM63 °FScattered clouds.8 mph64%29.92 "HgN/A
11:20 AM61 °FPassing clouds.8 mph68%29.92 "HgN/A
10:50 AM59 °FPassing clouds.7 mph72%29.95 "HgN/A
10:20 AM57 °FSunny.7 mph82%29.95 "Hg10 mi
9:50 AM55 °FSunny.6 mph88%29.95 "Hg10 mi
9:20 AM54 °FSunny.6 mph88%29.95 "Hg10 mi
8:50 AM54 °FSunny.5 mph88%29.95 "Hg10 mi
8:20 AM52 °FSunny.5 mph94%29.95 "Hg10 mi
7:50 AM52 °FSunny.3 mph94%29.95 "Hg10 mi
7:20 AM52 °FPassing clouds.3 mph94%29.95 "HgN/A
6:50 AM50 °FPassing clouds.3 mph100%29.95 "HgN/A
6:20 AM48 °FClear.3 mph100%29.95 "Hg10 mi
5:20 AM46 °FPassing clouds.3 mph100%29.95 "HgN/A
4:50 AM48 °FClear.1 mph94%29.95 "Hg10 mi
4:20 AM48 °FClear.6 mph94%29.95 "Hg10 mi
3:50 AM46 °FClear.5 mph100%29.95 "Hg10 mi
3:20 AM48 °FClear.5 mph94%29.95 "Hg10 mi
2:50 AM46 °FClear.5 mph100%29.95 "Hg10 mi
2:20 AM48 °FClear.3 mph94%29.95 "Hg10 mi
1:50 AM48 °FClear.2 mph94%29.95 "Hg10 mi
1:20 AM46 °FPassing clouds.3 mph93%29.95 "HgN/A
12:50 AM48 °FClear.2 mph94%29.95 "Hg10 mi
12:20 AM52 °FClear.7 mph88%29.98 "Hg10 mi
11:20 PM
Wed, Sep 2
48 °FClear.5 mph94%29.98 "Hg10 mi
10:50 PM50 °FClear.6 mph88%29.98 "Hg10 mi
10:20 PM52 °FClear.6 mph88%29.98 "Hg10 mi
9:50 PM54 °FClear.5 mph82%29.98 "Hg10 mi
9:20 PM55 °FClear.6 mph77%29.98 "Hg10 mi
8:50 PM57 °FScattered clouds.8 mph72%29.98 "HgN/A
8:20 PM59 °FPartly sunny.8 mph68%29.95 "HgN/A
7:50 PM61 °FPartly sunny.8 mph68%29.95 "HgN/A
7:20 PM61 °FPartly sunny.7 mph68%29.95 "HgN/A
Weather by CustomWeather, © 2015

See weather overviewHow to use our weather pages